Change the Weather History Date:

Wednesday, January 11, 2012

  Actual Average Record
Temperature  
Mean Temperature 27 °F 26 °F  
Max Temperature 39 °F 36 °F 76 °F (1990)
Min Temperature 15 °F 16 °F -23 °F (1918)
Degree Days  
Heating Degree Days 38 39  
Month to date heating degree days 319 433  
Since 1 July heating degree days 2657 2873  
Cooling Degree Days 0 0  
Month to date cooling degree days 0 0  
Year to date cooling degree days 0 0  
Moisture  
Dew Point 18 °F    
Average Humidity 64    
Maximum Humidity 78    
Minimum Humidity 49    
Precipitation  
Precipitation T in 0.02 in 0.75 in (1905)
Month to date precipitation T 0.09  
Year to date precipitation T 0.09  
Snow  
Snow T in 0.20 in 8.00 in (1905)
Month to date snowfall T 1.9  
Since 1 July snowfall 9.4 11.8  
Snow Depth 0.00 in    
Sea Level Pressure  
Sea Level Pressure 29.93 in    
Wind  
Wind Speed 26 mph (NNW)    
Max Wind Speed 46 mph    
Max Gust Speed 56 mph    
Visibility 9 miles    
Events Snow    
T = Trace of Precipitation, MM = Missing Value Source: NWS Daily Summary

Daily Weather History Graph

Daily Weather History Graph

Search for Another Location

Airport or City:

Trip Planner

Search our weather history database for the weather conditions in past years. The results will help you decide how hot, cold, wet, or windy it might be!

Date:

Astronomy

Jan. 11, 2012 Rise Set
Actual Time 7:56 AM CST 5:26 PM CST
Civil Twilight 7:26 AM CST 5:56 PM CST
Nautical Twilight 6:52 AM CST 6:30 PM CST
Astronomical Twilight 6:19 AM CST 7:03 PM CST
Moon 8:27 PM CST (1/11) 9:08 AM CST (1/11)
Length of Visible Light 10h 30m
Length of Day
9h 29m
Waning Gibbous, 93% of the Moon is Illuminated
Jan 11
Waning Gibbous
Jan 16
Last Quarter
Jan 23
New
Jan 30
First Quarter
Feb 7
Full

Hourly Weather History & Observations

Time (CST) Temp. Windchill Dew Point Humidity Pressure Visibility Wind Dir Wind Speed Gust Speed Precip Events Conditions
12:53 AM 35.1 °F 32.2 °F 26.1 °F 70% 29.66 in 10.0 mi SW 3.5 mph - N/A   Clear
1:53 AM 37.0 °F 32.4 °F 27.0 °F 67% 29.64 in 10.0 mi SSW 5.8 mph - N/A   Clear
2:53 AM 30.0 °F 23.2 °F 24.1 °F 79% 29.65 in 10.0 mi West 6.9 mph - N/A   Clear
3:53 AM 37.9 °F 26.6 °F 26.1 °F 62% 29.65 in 10.0 mi NNW 25.3 mph 31.1 mph N/A   Clear
4:53 AM 37.9 °F 27.3 °F 28.0 °F 68% 29.68 in 10.0 mi NNW 21.9 mph 31.1 mph N/A   Clear
5:53 AM 37.9 °F 25.9 °F 30.9 °F 76% 29.72 in 10.0 mi NNW 28.8 mph 36.8 mph N/A   Scattered Clouds
6:04 AM 37.4 °F 26.1 °F 30.2 °F 75% 29.71 in 10.0 mi NNW 24.2 mph 34.5 mph N/A   Mostly Cloudy
6:53 AM 36.0 °F 23.0 °F 28.9 °F 76% 29.77 in 10.0 mi NNW 29.9 mph 42.6 mph N/A   Overcast
7:53 AM 35.1 °F 21.8 °F 28.0 °F 76% 29.81 in 10.0 mi North 29.9 mph 47.2 mph N/A   Overcast
8:53 AM 34.0 °F 20.1 °F 27.0 °F 75% 29.88 in 10.0 mi North 31.1 mph 44.9 mph N/A   Overcast
9:53 AM 34.0 °F 18.9 °F 25.0 °F 70% 29.91 in 10.0 mi North 38.0 mph 46.0 mph N/A   Overcast
10:53 AM 34.0 °F 20.1 °F 24.1 °F 67% 29.94 in 10.0 mi North 31.1 mph 41.4 mph N/A   Overcast
11:53 AM 30.9 °F 15.1 °F 18.0 °F 59% 29.97 in 10.0 mi North 35.7 mph 48.3 mph N/A   Overcast
12:00 PM 32.0 °F 16.5 °F 19.4 °F 60% 29.92 in 10.0 mi North 35.7 mph 44.9 mph N/A   Overcast
12:53 PM 30.9 °F 14.9 °F 18.0 °F 59% 29.99 in 10.0 mi North 36.8 mph 50.6 mph N/A   Overcast
1:53 PM 28.9 °F 12.5 °F 14.0 °F 54% 30.01 in 10.0 mi North 34.5 mph 46.0 mph 0.00 in   Mostly Cloudy
2:53 PM 28.4 °F 11.6 °F 15.8 °F 59% 29.99 in 10.0 mi NNW 35.7 mph 43.7 mph N/A   Overcast
3:43 PM 26.6 °F 10.0 °F 17.6 °F 69% 30.01 in 1.8 mi NNW 31.1 mph 44.9 mph 0.00 in Snow Light Snow
3:48 PM 26.6 °F 9.6 °F 17.6 °F 69% 30.01 in 3.0 mi NNW 33.4 mph 42.6 mph 0.00 in Snow Light Snow
3:53 PM 27.0 °F 10.8 °F 17.1 °F 66% 30.07 in 5.0 mi NNW 29.9 mph 41.4 mph 0.00 in Snow Light Snow
4:53 PM 25.0 °F 8.1 °F 10.0 °F 53% 30.09 in 10.0 mi North 29.9 mph 39.1 mph 0.00 in   Overcast
5:53 PM 24.1 °F 8.0 °F 9.0 °F 53% 30.12 in 10.0 mi NNW 25.3 mph 35.7 mph N/A   Scattered Clouds
6:53 PM 23.0 °F 6.9 °F 7.0 °F 50% 30.13 in 10.0 mi NNW 24.2 mph 36.8 mph N/A   Partly Cloudy
7:53 PM 21.0 °F 3.6 °F 9.0 °F 60% 30.13 in 10.0 mi NNW 26.5 mph 33.4 mph N/A   Scattered Clouds
8:53 PM 19.0 °F 0.6 °F 3.0 °F 50% 30.13 in 10.0 mi NNW 27.6 mph 41.4 mph N/A   Clear
9:53 PM 17.1 °F -1.0 °F 3.0 °F 54% 30.13 in 10.0 mi NNW 24.2 mph 35.7 mph N/A   Clear
10:53 PM 16.0 °F -4.1 °F 1.9 °F 54% 30.14 in 10.0 mi NNW 29.9 mph 39.1 mph N/A   Clear
11:53 PM 15.1 °F -2.9 °F 1.9 °F 56% 30.14 in 10.0 mi NNW 21.9 mph 29.9 mph N/A   Partly Cloudy